Index of /20260507/WXO-DD/model_gdps/15km/00/132
Name Last modified Size Description
Parent Directory -
20260507T00Z_MSC_GDPS_AbsoluteVorticity_IsbL-0200_LatLon0.15_PT132H.grib2 2026-05-07 04:35 1.2M
20260507T00Z_MSC_GDPS_AbsoluteVorticity_IsbL-0250_LatLon0.15_PT132H.grib2 2026-05-07 04:35 1.3M
20260507T00Z_MSC_GDPS_AbsoluteVorticity_IsbL-0500_LatLon0.15_PT132H.grib2 2026-05-07 04:35 1.5M
20260507T00Z_MSC_GDPS_AbsoluteVorticity_IsbL-0700_LatLon0.15_PT132H.grib2 2026-05-07 04:35 1.3M
20260507T00Z_MSC_GDPS_AbsoluteVorticity_IsbL-0850_LatLon0.15_PT132H.grib2 2026-05-07 04:35 1.6M
20260507T00Z_MSC_GDPS_AirTemp-Max_AGL-2m_LatLon0.15_PT132H.grib2 2026-05-07 04:35 745K
20260507T00Z_MSC_GDPS_AirTemp-Min_AGL-2m_LatLon0.15_PT132H.grib2 2026-05-07 04:35 794K
20260507T00Z_MSC_GDPS_AirTemp_AGL-120m_LatLon0.15_PT132H.grib2 2026-05-07 04:35 912K
20260507T00Z_MSC_GDPS_AirTemp_AGL-2m_LatLon0.15_PT132H.grib2 2026-05-07 04:35 1.0M
20260507T00Z_MSC_GDPS_AirTemp_AGL-40m_LatLon0.15_PT132H.grib2 2026-05-07 04:35 815K
20260507T00Z_MSC_GDPS_AirTemp_AGL-80m_LatLon0.15_PT132H.grib2 2026-05-07 04:35 803K
20260507T00Z_MSC_GDPS_AirTemp_IsbL-0001_LatLon0.15_PT132H.grib2 2026-05-07 04:35 661K
20260507T00Z_MSC_GDPS_AirTemp_IsbL-0005_LatLon0.15_PT132H.grib2 2026-05-07 04:35 533K
20260507T00Z_MSC_GDPS_AirTemp_IsbL-0010_LatLon0.15_PT132H.grib2 2026-05-07 04:35 694K
20260507T00Z_MSC_GDPS_AirTemp_IsbL-0020_LatLon0.15_PT132H.grib2 2026-05-07 04:35 784K
20260507T00Z_MSC_GDPS_AirTemp_IsbL-0030_LatLon0.15_PT132H.grib2 2026-05-07 04:35 831K
20260507T00Z_MSC_GDPS_AirTemp_IsbL-0050_LatLon0.15_PT132H.grib2 2026-05-07 04:35 873K
20260507T00Z_MSC_GDPS_AirTemp_IsbL-0100_LatLon0.15_PT132H.grib2 2026-05-07 04:35 956K
20260507T00Z_MSC_GDPS_AirTemp_IsbL-0150_LatLon0.15_PT132H.grib2 2026-05-07 04:35 958K
20260507T00Z_MSC_GDPS_AirTemp_IsbL-0175_LatLon0.15_PT132H.grib2 2026-05-07 04:35 1.0M
20260507T00Z_MSC_GDPS_AirTemp_IsbL-0200_LatLon0.15_PT132H.grib2 2026-05-07 04:35 1.0M
20260507T00Z_MSC_GDPS_AirTemp_IsbL-0225_LatLon0.15_PT132H.grib2 2026-05-07 04:35 971K
20260507T00Z_MSC_GDPS_AirTemp_IsbL-0250_LatLon0.15_PT132H.grib2 2026-05-07 04:35 1.0M
20260507T00Z_MSC_GDPS_AirTemp_IsbL-0275_LatLon0.15_PT132H.grib2 2026-05-07 04:35 1.0M
20260507T00Z_MSC_GDPS_AirTemp_IsbL-0300_LatLon0.15_PT132H.grib2 2026-05-07 04:35 1.0M
20260507T00Z_MSC_GDPS_AirTemp_IsbL-0350_LatLon0.15_PT132H.grib2 2026-05-07 04:35 936K
20260507T00Z_MSC_GDPS_AirTemp_IsbL-0400_LatLon0.15_PT132H.grib2 2026-05-07 04:35 948K
20260507T00Z_MSC_GDPS_AirTemp_IsbL-0450_LatLon0.15_PT132H.grib2 2026-05-07 04:35 972K
20260507T00Z_MSC_GDPS_AirTemp_IsbL-0500_LatLon0.15_PT132H.grib2 2026-05-07 04:35 1.0M
20260507T00Z_MSC_GDPS_AirTemp_IsbL-0550_LatLon0.15_PT132H.grib2 2026-05-07 04:35 1.0M
20260507T00Z_MSC_GDPS_AirTemp_IsbL-0600_LatLon0.15_PT132H.grib2 2026-05-07 04:35 903K
20260507T00Z_MSC_GDPS_AirTemp_IsbL-0650_LatLon0.15_PT132H.grib2 2026-05-07 04:35 937K
20260507T00Z_MSC_GDPS_AirTemp_IsbL-0700_LatLon0.15_PT132H.grib2 2026-05-07 04:35 970K
20260507T00Z_MSC_GDPS_AirTemp_IsbL-0750_LatLon0.15_PT132H.grib2 2026-05-07 04:35 1.0M
20260507T00Z_MSC_GDPS_AirTemp_IsbL-0800_LatLon0.15_PT132H.grib2 2026-05-07 04:35 1.1M
20260507T00Z_MSC_GDPS_AirTemp_IsbL-0850_LatLon0.15_PT132H.grib2 2026-05-07 04:35 1.1M
20260507T00Z_MSC_GDPS_AirTemp_IsbL-0875_LatLon0.15_PT132H.grib2 2026-05-07 04:35 1.2M
20260507T00Z_MSC_GDPS_AirTemp_IsbL-0900_LatLon0.15_PT132H.grib2 2026-05-07 04:35 1.1M
20260507T00Z_MSC_GDPS_AirTemp_IsbL-0925_LatLon0.15_PT132H.grib2 2026-05-07 04:35 1.1M
20260507T00Z_MSC_GDPS_AirTemp_IsbL-0950_LatLon0.15_PT132H.grib2 2026-05-07 04:35 1.2M
20260507T00Z_MSC_GDPS_AirTemp_IsbL-0970_LatLon0.15_PT132H.grib2 2026-05-07 04:35 1.2M
20260507T00Z_MSC_GDPS_AirTemp_IsbL-0985_LatLon0.15_PT132H.grib2 2026-05-07 04:35 1.2M
20260507T00Z_MSC_GDPS_AirTemp_IsbL-1000_LatLon0.15_PT132H.grib2 2026-05-07 04:35 1.1M
20260507T00Z_MSC_GDPS_AirTemp_IsbL-1015_LatLon0.15_PT132H.grib2 2026-05-07 04:35 1.1M
20260507T00Z_MSC_GDPS_Albedo_Sfc_LatLon0.15_PT132H.grib2 2026-05-07 04:35 241K
20260507T00Z_MSC_GDPS_CAPE_Sfc_LatLon0.15_PT132H.grib2 2026-05-07 04:35 3.8M
20260507T00Z_MSC_GDPS_CIN_Sfc_LatLon0.15_PT132H.grib2 2026-05-07 04:35 2.8M
20260507T00Z_MSC_GDPS_CloudWater_EAtm_LatLon0.15_PT132H.grib2 2026-05-07 04:35 549K
20260507T00Z_MSC_GDPS_ConvectivePrecip-Accum_Sfc_LatLon0.15_PT132H.grib2 2026-05-07 04:35 3.6M
20260507T00Z_MSC_GDPS_DewPointDepression_AGL-2m_LatLon0.15_PT132H.grib2 2026-05-07 04:35 761K
20260507T00Z_MSC_GDPS_DewPointDepression_IsbL-0010_LatLon0.15_PT132H.grib2 2026-05-07 04:35 88K
20260507T00Z_MSC_GDPS_DewPointDepression_IsbL-0020_LatLon0.15_PT132H.grib2 2026-05-07 04:35 85K
20260507T00Z_MSC_GDPS_DewPointDepression_IsbL-0030_LatLon0.15_PT132H.grib2 2026-05-07 04:35 103K
20260507T00Z_MSC_GDPS_DewPointDepression_IsbL-0050_LatLon0.15_PT132H.grib2 2026-05-07 04:35 369K
20260507T00Z_MSC_GDPS_DewPointDepression_IsbL-0100_LatLon0.15_PT132H.grib2 2026-05-07 04:35 383K
20260507T00Z_MSC_GDPS_DewPointDepression_IsbL-0150_LatLon0.15_PT132H.grib2 2026-05-07 04:35 495K
20260507T00Z_MSC_GDPS_DewPointDepression_IsbL-0175_LatLon0.15_PT132H.grib2 2026-05-07 04:35 592K
20260507T00Z_MSC_GDPS_DewPointDepression_IsbL-0200_LatLon0.15_PT132H.grib2 2026-05-07 04:35 692K
20260507T00Z_MSC_GDPS_DewPointDepression_IsbL-0225_LatLon0.15_PT132H.grib2 2026-05-07 04:35 787K
20260507T00Z_MSC_GDPS_DewPointDepression_IsbL-0250_LatLon0.15_PT132H.grib2 2026-05-07 04:35 887K
20260507T00Z_MSC_GDPS_DewPointDepression_IsbL-0275_LatLon0.15_PT132H.grib2 2026-05-07 04:35 907K
20260507T00Z_MSC_GDPS_DewPointDepression_IsbL-0300_LatLon0.15_PT132H.grib2 2026-05-07 04:35 950K
20260507T00Z_MSC_GDPS_DewPointDepression_IsbL-0350_LatLon0.15_PT132H.grib2 2026-05-07 04:35 1.0M
20260507T00Z_MSC_GDPS_DewPointDepression_IsbL-0400_LatLon0.15_PT132H.grib2 2026-05-07 04:35 1.0M
20260507T00Z_MSC_GDPS_DewPointDepression_IsbL-0450_LatLon0.15_PT132H.grib2 2026-05-07 04:35 1.0M
20260507T00Z_MSC_GDPS_DewPointDepression_IsbL-0500_LatLon0.15_PT132H.grib2 2026-05-07 04:35 1.0M
20260507T00Z_MSC_GDPS_DewPointDepression_IsbL-0550_LatLon0.15_PT132H.grib2 2026-05-07 04:35 1.0M
20260507T00Z_MSC_GDPS_DewPointDepression_IsbL-0600_LatLon0.15_PT132H.grib2 2026-05-07 04:35 1.1M
20260507T00Z_MSC_GDPS_DewPointDepression_IsbL-0650_LatLon0.15_PT132H.grib2 2026-05-07 04:35 1.1M
20260507T00Z_MSC_GDPS_DewPointDepression_IsbL-0700_LatLon0.15_PT132H.grib2 2026-05-07 04:35 1.1M
20260507T00Z_MSC_GDPS_DewPointDepression_IsbL-0750_LatLon0.15_PT132H.grib2 2026-05-07 04:35 1.1M
20260507T00Z_MSC_GDPS_DewPointDepression_IsbL-0800_LatLon0.15_PT132H.grib2 2026-05-07 04:35 1.2M
20260507T00Z_MSC_GDPS_DewPointDepression_IsbL-0850_LatLon0.15_PT132H.grib2 2026-05-07 04:35 1.1M
20260507T00Z_MSC_GDPS_DewPointDepression_IsbL-0875_LatLon0.15_PT132H.grib2 2026-05-07 04:35 1.1M
20260507T00Z_MSC_GDPS_DewPointDepression_IsbL-0900_LatLon0.15_PT132H.grib2 2026-05-07 04:35 1.1M
20260507T00Z_MSC_GDPS_DewPointDepression_IsbL-0925_LatLon0.15_PT132H.grib2 2026-05-07 04:35 1.0M
20260507T00Z_MSC_GDPS_DewPointDepression_IsbL-0950_LatLon0.15_PT132H.grib2 2026-05-07 04:35 1.0M
20260507T00Z_MSC_GDPS_DewPointDepression_IsbL-0970_LatLon0.15_PT132H.grib2 2026-05-07 04:35 1.0M
20260507T00Z_MSC_GDPS_DewPointDepression_IsbL-0985_LatLon0.15_PT132H.grib2 2026-05-07 04:35 1.0M
20260507T00Z_MSC_GDPS_DewPointDepression_IsbL-1000_LatLon0.15_PT132H.grib2 2026-05-07 04:35 966K
20260507T00Z_MSC_GDPS_DewPointDepression_IsbL-1015_LatLon0.15_PT132H.grib2 2026-05-07 04:35 904K
20260507T00Z_MSC_GDPS_DewPoint_AGL-2m_LatLon0.15_PT132H.grib2 2026-05-07 04:35 612K
20260507T00Z_MSC_GDPS_DownwardLongwaveRadiationFlux-Accum_Sfc_LatLon0.15_PT132H.grib2 2026-05-07 04:35 825K
20260507T00Z_MSC_GDPS_DownwardShortwaveRadiationFlux-Accum_NTAtm_LatLon0.15_PT132H.grib2 2026-05-07 04:35 192K
20260507T00Z_MSC_GDPS_DownwardShortwaveRadiationFlux-Accum_Sfc_LatLon0.15_PT132H.grib2 2026-05-07 04:35 1.0M
20260507T00Z_MSC_GDPS_FreezingRain-Accum12h_Sfc_LatLon0.15_PT132H.grib2 2026-05-07 04:35 108K
20260507T00Z_MSC_GDPS_FreezingRain-Accum1h_Sfc_LatLon0.15_PT132H.grib2 2026-05-07 04:35 51K
20260507T00Z_MSC_GDPS_FreezingRain-Accum24h_Sfc_LatLon0.15_PT132H.grib2 2026-05-07 04:35 162K
20260507T00Z_MSC_GDPS_FreezingRain-Accum3h_Sfc_LatLon0.15_PT132H.grib2 2026-05-07 04:35 58K
20260507T00Z_MSC_GDPS_FreezingRain-Accum6h_Sfc_LatLon0.15_PT132H.grib2 2026-05-07 04:35 81K
20260507T00Z_MSC_GDPS_FreezingRain-Accum_Sfc_LatLon0.15_PT132H.grib2 2026-05-07 04:35 338K
20260507T00Z_MSC_GDPS_GeopotentialHeight_IsbL-0001_LatLon0.15_PT132H.grib2 2026-05-07 04:35 446K
20260507T00Z_MSC_GDPS_GeopotentialHeight_IsbL-0005_LatLon0.15_PT132H.grib2 2026-05-07 04:35 488K
20260507T00Z_MSC_GDPS_GeopotentialHeight_IsbL-0010_LatLon0.15_PT132H.grib2 2026-05-07 04:35 473K
20260507T00Z_MSC_GDPS_GeopotentialHeight_IsbL-0020_LatLon0.15_PT132H.grib2 2026-05-07 04:35 407K
20260507T00Z_MSC_GDPS_GeopotentialHeight_IsbL-0030_LatLon0.15_PT132H.grib2 2026-05-07 04:35 411K
20260507T00Z_MSC_GDPS_GeopotentialHeight_IsbL-0050_LatLon0.15_PT132H.grib2 2026-05-07 04:35 570K
20260507T00Z_MSC_GDPS_GeopotentialHeight_IsbL-0100_LatLon0.15_PT132H.grib2 2026-05-07 04:35 613K
20260507T00Z_MSC_GDPS_GeopotentialHeight_IsbL-0150_LatLon0.15_PT132H.grib2 2026-05-07 04:35 632K
20260507T00Z_MSC_GDPS_GeopotentialHeight_IsbL-0175_LatLon0.15_PT132H.grib2 2026-05-07 04:35 637K
20260507T00Z_MSC_GDPS_GeopotentialHeight_IsbL-0200_LatLon0.15_PT132H.grib2 2026-05-07 04:35 641K
20260507T00Z_MSC_GDPS_GeopotentialHeight_IsbL-0225_LatLon0.15_PT132H.grib2 2026-05-07 04:35 643K
20260507T00Z_MSC_GDPS_GeopotentialHeight_IsbL-0250_LatLon0.15_PT132H.grib2 2026-05-07 04:35 642K
20260507T00Z_MSC_GDPS_GeopotentialHeight_IsbL-0275_LatLon0.15_PT132H.grib2 2026-05-07 04:35 643K
20260507T00Z_MSC_GDPS_GeopotentialHeight_IsbL-0300_LatLon0.15_PT132H.grib2 2026-05-07 04:35 636K
20260507T00Z_MSC_GDPS_GeopotentialHeight_IsbL-0350_LatLon0.15_PT132H.grib2 2026-05-07 04:35 634K
20260507T00Z_MSC_GDPS_GeopotentialHeight_IsbL-0400_LatLon0.15_PT132H.grib2 2026-05-07 04:35 626K
20260507T00Z_MSC_GDPS_GeopotentialHeight_IsbL-0450_LatLon0.15_PT132H.grib2 2026-05-07 04:35 617K
20260507T00Z_MSC_GDPS_GeopotentialHeight_IsbL-0500_LatLon0.15_PT132H.grib2 2026-05-07 04:35 602K
20260507T00Z_MSC_GDPS_GeopotentialHeight_IsbL-0550_LatLon0.15_PT132H.grib2 2026-05-07 04:35 532K
20260507T00Z_MSC_GDPS_GeopotentialHeight_IsbL-0600_LatLon0.15_PT132H.grib2 2026-05-07 04:35 528K
20260507T00Z_MSC_GDPS_GeopotentialHeight_IsbL-0650_LatLon0.15_PT132H.grib2 2026-05-07 04:35 528K
20260507T00Z_MSC_GDPS_GeopotentialHeight_IsbL-0700_LatLon0.15_PT132H.grib2 2026-05-07 04:35 700K
20260507T00Z_MSC_GDPS_GeopotentialHeight_IsbL-0750_LatLon0.15_PT132H.grib2 2026-05-07 04:35 704K
20260507T00Z_MSC_GDPS_GeopotentialHeight_IsbL-0800_LatLon0.15_PT132H.grib2 2026-05-07 04:35 715K
20260507T00Z_MSC_GDPS_GeopotentialHeight_IsbL-0850_LatLon0.15_PT132H.grib2 2026-05-07 04:35 718K
20260507T00Z_MSC_GDPS_GeopotentialHeight_IsbL-0875_LatLon0.15_PT132H.grib2 2026-05-07 04:35 722K
20260507T00Z_MSC_GDPS_GeopotentialHeight_IsbL-0900_LatLon0.15_PT132H.grib2 2026-05-07 04:35 732K
20260507T00Z_MSC_GDPS_GeopotentialHeight_IsbL-0925_LatLon0.15_PT132H.grib2 2026-05-07 04:35 739K
20260507T00Z_MSC_GDPS_GeopotentialHeight_IsbL-0950_LatLon0.15_PT132H.grib2 2026-05-07 04:35 745K
20260507T00Z_MSC_GDPS_GeopotentialHeight_IsbL-0970_LatLon0.15_PT132H.grib2 2026-05-07 04:35 757K
20260507T00Z_MSC_GDPS_GeopotentialHeight_IsbL-0985_LatLon0.15_PT132H.grib2 2026-05-07 04:35 772K
20260507T00Z_MSC_GDPS_GeopotentialHeight_IsbL-1000_LatLon0.15_PT132H.grib2 2026-05-07 04:35 795K
20260507T00Z_MSC_GDPS_GeopotentialHeight_IsbL-1015_LatLon0.15_PT132H.grib2 2026-05-07 04:35 625K
20260507T00Z_MSC_GDPS_Humidex_Sfc_LatLon0.15_PT132H.grib2 2026-05-07 04:35 5.3M
20260507T00Z_MSC_GDPS_IcePellets-Accum12h_Sfc_LatLon0.15_PT132H.grib2 2026-05-07 04:35 16K
20260507T00Z_MSC_GDPS_IcePellets-Accum1h_Sfc_LatLon0.15_PT132H.grib2 2026-05-07 04:35 4.6K
20260507T00Z_MSC_GDPS_IcePellets-Accum24h_Sfc_LatLon0.15_PT132H.grib2 2026-05-07 04:35 32K
20260507T00Z_MSC_GDPS_IcePellets-Accum3h_Sfc_LatLon0.15_PT132H.grib2 2026-05-07 04:35 3.3K
20260507T00Z_MSC_GDPS_IcePellets-Accum6h_Sfc_LatLon0.15_PT132H.grib2 2026-05-07 04:35 9.0K
20260507T00Z_MSC_GDPS_IcePellets-Accum_Sfc_LatLon0.15_PT132H.grib2 2026-05-07 04:35 154K
20260507T00Z_MSC_GDPS_KIndex_Sfc_LatLon0.15_PT132H.grib2 2026-05-07 04:35 6.0M
20260507T00Z_MSC_GDPS_LatentHeatNetFlux_Sfc_LatLon0.15_PT132H.grib2 2026-05-07 04:35 556K
20260507T00Z_MSC_GDPS_LiftedIndex-MU-VT_IsbL-0500_LatLon0.15_PT132H.grib2 2026-05-07 04:35 5.4M
20260507T00Z_MSC_GDPS_NetLongwaveRadiationFlux-Accum_Sfc_LatLon0.15_PT132H.grib2 2026-05-07 04:35 1.0M
20260507T00Z_MSC_GDPS_NetShortwaveRadiationFlux-Accum_Sfc_LatLon0.15_PT132H.grib2 2026-05-07 04:35 1.0M
20260507T00Z_MSC_GDPS_O3MixingRatio_Sfc_LatLon0.15_PT132H.grib2 2026-05-07 04:56 1.9M
20260507T00Z_MSC_GDPS_O3_EAtm_LatLon0.15_PT132H.grib2 2026-05-07 04:56 2.4M
20260507T00Z_MSC_GDPS_PlanetaryBoundaryLayerHeight_Sfc_LatLon0.15_PT132H.grib2 2026-05-07 04:35 2.5M
20260507T00Z_MSC_GDPS_Precip-Accum12h_Sfc_LatLon0.15_PT132H.grib2 2026-05-07 04:35 3.7M
20260507T00Z_MSC_GDPS_Precip-Accum1h_Sfc_LatLon0.15_PT132H.grib2 2026-05-07 04:35 3.3M
20260507T00Z_MSC_GDPS_Precip-Accum24h_Sfc_LatLon0.15_PT132H.grib2 2026-05-07 04:35 4.2M
20260507T00Z_MSC_GDPS_Precip-Accum3h_Sfc_LatLon0.15_PT132H.grib2 2026-05-07 04:35 3.5M
20260507T00Z_MSC_GDPS_Precip-Accum6h_Sfc_LatLon0.15_PT132H.grib2 2026-05-07 04:35 3.6M
20260507T00Z_MSC_GDPS_Precip-Accum_Sfc_LatLon0.15_PT132H.grib2 2026-05-07 04:35 4.9M
20260507T00Z_MSC_GDPS_PrecipRate_Sfc_LatLon0.15_PT132H.grib2 2026-05-07 04:35 3.1M
20260507T00Z_MSC_GDPS_PrecipType-Instant_Sfc_LatLon0.15_PT132H.grib2 2026-05-07 04:35 1.6M
20260507T00Z_MSC_GDPS_Pressure_MSL_LatLon0.15_PT132H.grib2 2026-05-07 04:35 831K
20260507T00Z_MSC_GDPS_Pressure_PVU-1.5_LatLon0.15_PT132H.grib2 2026-05-07 04:35 5.8M
20260507T00Z_MSC_GDPS_Pressure_PVU-1_LatLon0.15_PT132H.grib2 2026-05-07 04:35 6.0M
20260507T00Z_MSC_GDPS_Pressure_PVU-2_LatLon0.15_PT132H.grib2 2026-05-07 04:35 6.0M
20260507T00Z_MSC_GDPS_Pressure_Sfc_LatLon0.15_PT132H.grib2 2026-05-07 04:35 1.1M
20260507T00Z_MSC_GDPS_RadiativeTemp_Sfc_LatLon0.15_PT132H.grib2 2026-05-07 04:35 499K
20260507T00Z_MSC_GDPS_Rain-Accum12h_Sfc_LatLon0.15_PT132H.grib2 2026-05-07 04:35 2.5M
20260507T00Z_MSC_GDPS_Rain-Accum1h_Sfc_LatLon0.15_PT132H.grib2 2026-05-07 04:35 1.7M
20260507T00Z_MSC_GDPS_Rain-Accum24h_Sfc_LatLon0.15_PT132H.grib2 2026-05-07 04:35 2.9M
20260507T00Z_MSC_GDPS_Rain-Accum3h_Sfc_LatLon0.15_PT132H.grib2 2026-05-07 04:35 1.9M
20260507T00Z_MSC_GDPS_Rain-Accum6h_Sfc_LatLon0.15_PT132H.grib2 2026-05-07 04:35 2.4M
20260507T00Z_MSC_GDPS_Rain-Accum_Sfc_LatLon0.15_PT132H.grib2 2026-05-07 04:35 3.9M
20260507T00Z_MSC_GDPS_RelativeHumidity_AGL-2m_LatLon0.15_PT132H.grib2 2026-05-07 04:35 1.0M
20260507T00Z_MSC_GDPS_RelativeHumidity_IsbL-0010_LatLon0.15_PT132H.grib2 2026-05-07 04:35 152K
20260507T00Z_MSC_GDPS_RelativeHumidity_IsbL-0020_LatLon0.15_PT132H.grib2 2026-05-07 04:35 168K
20260507T00Z_MSC_GDPS_RelativeHumidity_IsbL-0030_LatLon0.15_PT132H.grib2 2026-05-07 04:35 188K
20260507T00Z_MSC_GDPS_RelativeHumidity_IsbL-0050_LatLon0.15_PT132H.grib2 2026-05-07 04:35 333K
20260507T00Z_MSC_GDPS_RelativeHumidity_IsbL-0100_LatLon0.15_PT132H.grib2 2026-05-07 04:35 487K
20260507T00Z_MSC_GDPS_RelativeHumidity_IsbL-0150_LatLon0.15_PT132H.grib2 2026-05-07 04:35 670K
20260507T00Z_MSC_GDPS_RelativeHumidity_IsbL-0175_LatLon0.15_PT132H.grib2 2026-05-07 04:35 800K
20260507T00Z_MSC_GDPS_RelativeHumidity_IsbL-0200_LatLon0.15_PT132H.grib2 2026-05-07 04:35 718K
20260507T00Z_MSC_GDPS_RelativeHumidity_IsbL-0225_LatLon0.15_PT132H.grib2 2026-05-07 04:35 802K
20260507T00Z_MSC_GDPS_RelativeHumidity_IsbL-0250_LatLon0.15_PT132H.grib2 2026-05-07 04:35 878K
20260507T00Z_MSC_GDPS_RelativeHumidity_IsbL-0275_LatLon0.15_PT132H.grib2 2026-05-07 04:35 898K
20260507T00Z_MSC_GDPS_RelativeHumidity_IsbL-0300_LatLon0.15_PT132H.grib2 2026-05-07 04:35 941K
20260507T00Z_MSC_GDPS_RelativeHumidity_IsbL-0350_LatLon0.15_PT132H.grib2 2026-05-07 04:35 958K
20260507T00Z_MSC_GDPS_RelativeHumidity_IsbL-0400_LatLon0.15_PT132H.grib2 2026-05-07 04:35 1.0M
20260507T00Z_MSC_GDPS_RelativeHumidity_IsbL-0450_LatLon0.15_PT132H.grib2 2026-05-07 04:35 1.0M
20260507T00Z_MSC_GDPS_RelativeHumidity_IsbL-0500_LatLon0.15_PT132H.grib2 2026-05-07 04:35 1.0M
20260507T00Z_MSC_GDPS_RelativeHumidity_IsbL-0550_LatLon0.15_PT132H.grib2 2026-05-07 04:35 1.1M
20260507T00Z_MSC_GDPS_RelativeHumidity_IsbL-0600_LatLon0.15_PT132H.grib2 2026-05-07 04:35 1.0M
20260507T00Z_MSC_GDPS_RelativeHumidity_IsbL-0650_LatLon0.15_PT132H.grib2 2026-05-07 04:35 1.1M
20260507T00Z_MSC_GDPS_RelativeHumidity_IsbL-0700_LatLon0.15_PT132H.grib2 2026-05-07 04:35 1.1M
20260507T00Z_MSC_GDPS_RelativeHumidity_IsbL-0750_LatLon0.15_PT132H.grib2 2026-05-07 04:35 1.2M
20260507T00Z_MSC_GDPS_RelativeHumidity_IsbL-0800_LatLon0.15_PT132H.grib2 2026-05-07 04:35 1.3M
20260507T00Z_MSC_GDPS_RelativeHumidity_IsbL-0850_LatLon0.15_PT132H.grib2 2026-05-07 04:35 1.3M
20260507T00Z_MSC_GDPS_RelativeHumidity_IsbL-0875_LatLon0.15_PT132H.grib2 2026-05-07 04:35 1.2M
20260507T00Z_MSC_GDPS_RelativeHumidity_IsbL-0900_LatLon0.15_PT132H.grib2 2026-05-07 04:35 1.2M
20260507T00Z_MSC_GDPS_RelativeHumidity_IsbL-0925_LatLon0.15_PT132H.grib2 2026-05-07 04:35 1.2M
20260507T00Z_MSC_GDPS_RelativeHumidity_IsbL-0950_LatLon0.15_PT132H.grib2 2026-05-07 04:35 1.2M
20260507T00Z_MSC_GDPS_RelativeHumidity_IsbL-0970_LatLon0.15_PT132H.grib2 2026-05-07 04:35 1.2M
20260507T00Z_MSC_GDPS_RelativeHumidity_IsbL-0985_LatLon0.15_PT132H.grib2 2026-05-07 04:35 1.1M
20260507T00Z_MSC_GDPS_RelativeHumidity_IsbL-1000_LatLon0.15_PT132H.grib2 2026-05-07 04:35 1.1M
20260507T00Z_MSC_GDPS_RelativeHumidity_IsbL-1015_LatLon0.15_PT132H.grib2 2026-05-07 04:35 1.0M
20260507T00Z_MSC_GDPS_RelativeVorticity_IsbL-0200_LatLon0.15_PT132H.grib2 2026-05-07 04:35 1.2M
20260507T00Z_MSC_GDPS_RelativeVorticity_IsbL-0250_LatLon0.15_PT132H.grib2 2026-05-07 04:35 1.3M
20260507T00Z_MSC_GDPS_RelativeVorticity_IsbL-0500_LatLon0.15_PT132H.grib2 2026-05-07 04:35 1.5M
20260507T00Z_MSC_GDPS_RelativeVorticity_IsbL-0700_LatLon0.15_PT132H.grib2 2026-05-07 04:35 1.3M
20260507T00Z_MSC_GDPS_RelativeVorticity_IsbL-0850_LatLon0.15_PT132H.grib2 2026-05-07 04:35 1.6M
20260507T00Z_MSC_GDPS_Runoff-Accum_Sfc_LatLon0.15_PT132H.grib2 2026-05-07 04:35 107K
20260507T00Z_MSC_GDPS_SensibleHeatNetFlux_Sfc_LatLon0.15_PT132H.grib2 2026-05-07 04:35 659K
20260507T00Z_MSC_GDPS_ShowalterIndex_IsbL-0500_LatLon0.15_PT132H.grib2 2026-05-07 04:35 6.2M
20260507T00Z_MSC_GDPS_Snow-Accum12h_Sfc_LatLon0.15_PT132H.grib2 2026-05-07 04:35 1.3M
20260507T00Z_MSC_GDPS_Snow-Accum1h_Sfc_LatLon0.15_PT132H.grib2 2026-05-07 04:35 939K
20260507T00Z_MSC_GDPS_Snow-Accum24h_Sfc_LatLon0.15_PT132H.grib2 2026-05-07 04:35 1.5M
20260507T00Z_MSC_GDPS_Snow-Accum3h_Sfc_LatLon0.15_PT132H.grib2 2026-05-07 04:35 919K
20260507T00Z_MSC_GDPS_Snow-Accum6h_Sfc_LatLon0.15_PT132H.grib2 2026-05-07 04:35 1.2M
20260507T00Z_MSC_GDPS_Snow-Accum_Sfc_LatLon0.15_PT132H.grib2 2026-05-07 04:35 2.1M
20260507T00Z_MSC_GDPS_SnowDensity_Sfc_LatLon0.15_PT132H.grib2 2026-05-07 04:35 258K
20260507T00Z_MSC_GDPS_SnowDepth_Sfc_LatLon0.15_PT132H.grib2 2026-05-07 04:35 1.7M
20260507T00Z_MSC_GDPS_SoilTemp_DBS-0to10cm_LatLon0.15_PT132H.grib2 2026-05-07 04:35 513K
20260507T00Z_MSC_GDPS_SoilTemp_Sfc_LatLon0.15_PT132H.grib2 2026-05-07 04:35 591K
20260507T00Z_MSC_GDPS_SoilVolumetricIceContent_Sfc_LatLon0.15_PT132H.grib2 2026-05-07 04:35 173K
20260507T00Z_MSC_GDPS_SoilVolumetricWaterContent_DBS-0to10cm_LatLon0.15_PT132H.grib2 2026-05-07 04:35 602K
20260507T00Z_MSC_GDPS_SoilVolumetricWaterContent_DBS-0to1cm_LatLon0.15_PT132H.grib2 2026-05-07 04:35 645K
20260507T00Z_MSC_GDPS_SpecificHumidity_AGL-120m_LatLon0.15_PT132H.grib2 2026-05-07 04:35 1.1M
20260507T00Z_MSC_GDPS_SpecificHumidity_AGL-2m_LatLon0.15_PT132H.grib2 2026-05-07 04:35 1.3M
20260507T00Z_MSC_GDPS_SpecificHumidity_AGL-40m_LatLon0.15_PT132H.grib2 2026-05-07 04:35 1.1M
20260507T00Z_MSC_GDPS_SpecificHumidity_AGL-80m_LatLon0.15_PT132H.grib2 2026-05-07 04:35 1.1M
20260507T00Z_MSC_GDPS_SpecificHumidity_IsbL-0001_LatLon0.15_PT132H.grib2 2026-05-07 04:35 1.2M
20260507T00Z_MSC_GDPS_SpecificHumidity_IsbL-0005_LatLon0.15_PT132H.grib2 2026-05-07 04:35 1.1M
20260507T00Z_MSC_GDPS_SpecificHumidity_IsbL-0010_LatLon0.15_PT132H.grib2 2026-05-07 04:35 1.2M
20260507T00Z_MSC_GDPS_SpecificHumidity_IsbL-0020_LatLon0.15_PT132H.grib2 2026-05-07 04:35 1.2M
20260507T00Z_MSC_GDPS_SpecificHumidity_IsbL-0030_LatLon0.15_PT132H.grib2 2026-05-07 04:35 1.2M
20260507T00Z_MSC_GDPS_SpecificHumidity_IsbL-0050_LatLon0.15_PT132H.grib2 2026-05-07 04:35 1.5M
20260507T00Z_MSC_GDPS_SpecificHumidity_IsbL-0100_LatLon0.15_PT132H.grib2 2026-05-07 04:35 1.2M
20260507T00Z_MSC_GDPS_SpecificHumidity_IsbL-0150_LatLon0.15_PT132H.grib2 2026-05-07 04:35 1.3M
20260507T00Z_MSC_GDPS_SpecificHumidity_IsbL-0175_LatLon0.15_PT132H.grib2 2026-05-07 04:35 1.3M
20260507T00Z_MSC_GDPS_SpecificHumidity_IsbL-0200_LatLon0.15_PT132H.grib2 2026-05-07 04:35 1.3M
20260507T00Z_MSC_GDPS_SpecificHumidity_IsbL-0225_LatLon0.15_PT132H.grib2 2026-05-07 04:35 1.3M
20260507T00Z_MSC_GDPS_SpecificHumidity_IsbL-0250_LatLon0.15_PT132H.grib2 2026-05-07 04:35 1.2M
20260507T00Z_MSC_GDPS_SpecificHumidity_IsbL-0275_LatLon0.15_PT132H.grib2 2026-05-07 04:35 1.4M
20260507T00Z_MSC_GDPS_SpecificHumidity_IsbL-0300_LatLon0.15_PT132H.grib2 2026-05-07 04:35 1.3M
20260507T00Z_MSC_GDPS_SpecificHumidity_IsbL-0350_LatLon0.15_PT132H.grib2 2026-05-07 04:35 1.3M
20260507T00Z_MSC_GDPS_SpecificHumidity_IsbL-0400_LatLon0.15_PT132H.grib2 2026-05-07 04:35 1.5M
20260507T00Z_MSC_GDPS_SpecificHumidity_IsbL-0450_LatLon0.15_PT132H.grib2 2026-05-07 04:35 1.3M
20260507T00Z_MSC_GDPS_SpecificHumidity_IsbL-0500_LatLon0.15_PT132H.grib2 2026-05-07 04:35 1.5M
20260507T00Z_MSC_GDPS_SpecificHumidity_IsbL-0550_LatLon0.15_PT132H.grib2 2026-05-07 04:35 1.6M
20260507T00Z_MSC_GDPS_SpecificHumidity_IsbL-0600_LatLon0.15_PT132H.grib2 2026-05-07 04:35 1.5M
20260507T00Z_MSC_GDPS_SpecificHumidity_IsbL-0650_LatLon0.15_PT132H.grib2 2026-05-07 04:35 1.6M
20260507T00Z_MSC_GDPS_SpecificHumidity_IsbL-0700_LatLon0.15_PT132H.grib2 2026-05-07 04:35 1.7M
20260507T00Z_MSC_GDPS_SpecificHumidity_IsbL-0750_LatLon0.15_PT132H.grib2 2026-05-07 04:35 1.8M
20260507T00Z_MSC_GDPS_SpecificHumidity_IsbL-0800_LatLon0.15_PT132H.grib2 2026-05-07 04:35 1.9M
20260507T00Z_MSC_GDPS_SpecificHumidity_IsbL-0850_LatLon0.15_PT132H.grib2 2026-05-07 04:35 2.0M
20260507T00Z_MSC_GDPS_SpecificHumidity_IsbL-0875_LatLon0.15_PT132H.grib2 2026-05-07 04:35 2.0M
20260507T00Z_MSC_GDPS_SpecificHumidity_IsbL-0900_LatLon0.15_PT132H.grib2 2026-05-07 04:35 2.0M
20260507T00Z_MSC_GDPS_SpecificHumidity_IsbL-0925_LatLon0.15_PT132H.grib2 2026-05-07 04:35 1.6M
20260507T00Z_MSC_GDPS_SpecificHumidity_IsbL-0950_LatLon0.15_PT132H.grib2 2026-05-07 04:35 1.6M
20260507T00Z_MSC_GDPS_SpecificHumidity_IsbL-0970_LatLon0.15_PT132H.grib2 2026-05-07 04:35 1.6M
20260507T00Z_MSC_GDPS_SpecificHumidity_IsbL-0985_LatLon0.15_PT132H.grib2 2026-05-07 04:35 1.6M
20260507T00Z_MSC_GDPS_SpecificHumidity_IsbL-1000_LatLon0.15_PT132H.grib2 2026-05-07 04:35 1.6M
20260507T00Z_MSC_GDPS_SpecificHumidity_IsbL-1015_LatLon0.15_PT132H.grib2 2026-05-07 04:35 1.5M
20260507T00Z_MSC_GDPS_SpecificHumidity_Sfc_LatLon0.15_PT132H.grib2 2026-05-07 04:35 692K
20260507T00Z_MSC_GDPS_Thickness_IsbL-0850to0700_LatLon0.15_PT132H.grib2 2026-05-07 04:35 477K
20260507T00Z_MSC_GDPS_Thickness_IsbL-1000to0500_LatLon0.15_PT132H.grib2 2026-05-07 04:35 381K
20260507T00Z_MSC_GDPS_Thickness_IsbL-1000to0850_LatLon0.15_PT132H.grib2 2026-05-07 04:35 493K
20260507T00Z_MSC_GDPS_TotalCloudCover_Sfc_LatLon0.15_PT132H.grib2 2026-05-07 04:35 829K
20260507T00Z_MSC_GDPS_TotalTotalsIndex_Sfc_LatLon0.15_PT132H.grib2 2026-05-07 04:35 6.1M
20260507T00Z_MSC_GDPS_UVIndex-ClearSky_Sfc_LatLon0.15_PT132H.grib2 2026-05-07 04:56 1.0M
20260507T00Z_MSC_GDPS_UVIndex_Sfc_LatLon0.15_PT132H.grib2 2026-05-07 04:56 1.5M
20260507T00Z_MSC_GDPS_UpwardLongwaveRadiationFlux_NTAtm_LatLon0.15_PT132H.grib2 2026-05-07 04:35 848K
20260507T00Z_MSC_GDPS_VerticalVelocity_IsbL-0200_LatLon0.15_PT132H.grib2 2026-05-07 04:35 1.1M
20260507T00Z_MSC_GDPS_VerticalVelocity_IsbL-0250_LatLon0.15_PT132H.grib2 2026-05-07 04:35 1.0M
20260507T00Z_MSC_GDPS_VerticalVelocity_IsbL-0500_LatLon0.15_PT132H.grib2 2026-05-07 04:35 1.3M
20260507T00Z_MSC_GDPS_VerticalVelocity_IsbL-0600_LatLon0.15_PT132H.grib2 2026-05-07 04:35 1.1M
20260507T00Z_MSC_GDPS_VerticalVelocity_IsbL-0700_LatLon0.15_PT132H.grib2 2026-05-07 04:35 1.2M
20260507T00Z_MSC_GDPS_VerticalVelocity_IsbL-0850_LatLon0.15_PT132H.grib2 2026-05-07 04:35 1.3M
20260507T00Z_MSC_GDPS_WindChill_Sfc_LatLon0.15_PT132H.grib2 2026-05-07 04:35 5.3M
20260507T00Z_MSC_GDPS_WindDir_AGL-10m_LatLon0.15_PT132H.grib2 2026-05-07 04:35 1.3M
20260507T00Z_MSC_GDPS_WindDir_AGL-120m_LatLon0.15_PT132H.grib2 2026-05-07 04:35 1.3M
20260507T00Z_MSC_GDPS_WindDir_AGL-40m_LatLon0.15_PT132H.grib2 2026-05-07 04:35 1.4M
20260507T00Z_MSC_GDPS_WindDir_AGL-80m_LatLon0.15_PT132H.grib2 2026-05-07 04:35 1.3M
20260507T00Z_MSC_GDPS_WindDir_IsbL-0001_LatLon0.15_PT132H.grib2 2026-05-07 04:35 641K
20260507T00Z_MSC_GDPS_WindDir_IsbL-0005_LatLon0.15_PT132H.grib2 2026-05-07 04:35 817K
20260507T00Z_MSC_GDPS_WindDir_IsbL-0010_LatLon0.15_PT132H.grib2 2026-05-07 04:35 839K
20260507T00Z_MSC_GDPS_WindDir_IsbL-0020_LatLon0.15_PT132H.grib2 2026-05-07 04:35 952K
20260507T00Z_MSC_GDPS_WindDir_IsbL-0030_LatLon0.15_PT132H.grib2 2026-05-07 04:35 958K
20260507T00Z_MSC_GDPS_WindDir_IsbL-0050_LatLon0.15_PT132H.grib2 2026-05-07 04:35 951K
20260507T00Z_MSC_GDPS_WindDir_IsbL-0100_LatLon0.15_PT132H.grib2 2026-05-07 04:35 1.0M
20260507T00Z_MSC_GDPS_WindDir_IsbL-0150_LatLon0.15_PT132H.grib2 2026-05-07 04:35 1.0M
20260507T00Z_MSC_GDPS_WindDir_IsbL-0175_LatLon0.15_PT132H.grib2 2026-05-07 04:35 1.0M
20260507T00Z_MSC_GDPS_WindDir_IsbL-0200_LatLon0.15_PT132H.grib2 2026-05-07 04:35 1.1M
20260507T00Z_MSC_GDPS_WindDir_IsbL-0225_LatLon0.15_PT132H.grib2 2026-05-07 04:35 1.1M
20260507T00Z_MSC_GDPS_WindDir_IsbL-0250_LatLon0.15_PT132H.grib2 2026-05-07 04:35 1.1M
20260507T00Z_MSC_GDPS_WindDir_IsbL-0275_LatLon0.15_PT132H.grib2 2026-05-07 04:35 1.2M
20260507T00Z_MSC_GDPS_WindDir_IsbL-0300_LatLon0.15_PT132H.grib2 2026-05-07 04:35 1.2M
20260507T00Z_MSC_GDPS_WindDir_IsbL-0350_LatLon0.15_PT132H.grib2 2026-05-07 04:35 1.2M
20260507T00Z_MSC_GDPS_WindDir_IsbL-0400_LatLon0.15_PT132H.grib2 2026-05-07 04:35 1.3M
20260507T00Z_MSC_GDPS_WindDir_IsbL-0450_LatLon0.15_PT132H.grib2 2026-05-07 04:35 1.3M
20260507T00Z_MSC_GDPS_WindDir_IsbL-0500_LatLon0.15_PT132H.grib2 2026-05-07 04:35 1.4M
20260507T00Z_MSC_GDPS_WindDir_IsbL-0550_LatLon0.15_PT132H.grib2 2026-05-07 04:35 1.4M
20260507T00Z_MSC_GDPS_WindDir_IsbL-0600_LatLon0.15_PT132H.grib2 2026-05-07 04:35 1.5M
20260507T00Z_MSC_GDPS_WindDir_IsbL-0650_LatLon0.15_PT132H.grib2 2026-05-07 04:35 1.5M
20260507T00Z_MSC_GDPS_WindDir_IsbL-0700_LatLon0.15_PT132H.grib2 2026-05-07 04:35 1.6M
20260507T00Z_MSC_GDPS_WindDir_IsbL-0750_LatLon0.15_PT132H.grib2 2026-05-07 04:35 1.7M
20260507T00Z_MSC_GDPS_WindDir_IsbL-0800_LatLon0.15_PT132H.grib2 2026-05-07 04:35 1.8M
20260507T00Z_MSC_GDPS_WindDir_IsbL-0850_LatLon0.15_PT132H.grib2 2026-05-07 04:35 1.9M
20260507T00Z_MSC_GDPS_WindDir_IsbL-0875_LatLon0.15_PT132H.grib2 2026-05-07 04:35 1.9M
20260507T00Z_MSC_GDPS_WindDir_IsbL-0900_LatLon0.15_PT132H.grib2 2026-05-07 04:35 1.9M
20260507T00Z_MSC_GDPS_WindDir_IsbL-0925_LatLon0.15_PT132H.grib2 2026-05-07 04:35 2.0M
20260507T00Z_MSC_GDPS_WindDir_IsbL-0950_LatLon0.15_PT132H.grib2 2026-05-07 04:35 1.9M
20260507T00Z_MSC_GDPS_WindDir_IsbL-0970_LatLon0.15_PT132H.grib2 2026-05-07 04:35 2.0M
20260507T00Z_MSC_GDPS_WindDir_IsbL-0985_LatLon0.15_PT132H.grib2 2026-05-07 04:35 2.0M
20260507T00Z_MSC_GDPS_WindDir_IsbL-1000_LatLon0.15_PT132H.grib2 2026-05-07 04:35 2.0M
20260507T00Z_MSC_GDPS_WindDir_IsbL-1015_LatLon0.15_PT132H.grib2 2026-05-07 04:35 2.0M
20260507T00Z_MSC_GDPS_WindGust-Max_AGL-10m_LatLon0.15_PT132H.grib2 2026-05-07 04:35 2.2M
20260507T00Z_MSC_GDPS_WindGust-Min_AGL-10m_LatLon0.15_PT132H.grib2 2026-05-07 04:35 2.2M
20260507T00Z_MSC_GDPS_WindGust_AGL-10m_LatLon0.15_PT132H.grib2 2026-05-07 04:35 2.1M
20260507T00Z_MSC_GDPS_WindSpeed_AGL-10m_LatLon0.15_PT132H.grib2 2026-05-07 04:35 1.1M
20260507T00Z_MSC_GDPS_WindSpeed_AGL-120m_LatLon0.15_PT132H.grib2 2026-05-07 04:35 1.2M
20260507T00Z_MSC_GDPS_WindSpeed_AGL-40m_LatLon0.15_PT132H.grib2 2026-05-07 04:35 1.2M
20260507T00Z_MSC_GDPS_WindSpeed_AGL-80m_LatLon0.15_PT132H.grib2 2026-05-07 04:35 1.2M
20260507T00Z_MSC_GDPS_WindSpeed_IsbL-0001_LatLon0.15_PT132H.grib2 2026-05-07 04:35 502K
20260507T00Z_MSC_GDPS_WindSpeed_IsbL-0005_LatLon0.15_PT132H.grib2 2026-05-07 04:35 693K
20260507T00Z_MSC_GDPS_WindSpeed_IsbL-0010_LatLon0.15_PT132H.grib2 2026-05-07 04:35 702K
20260507T00Z_MSC_GDPS_WindSpeed_IsbL-0020_LatLon0.15_PT132H.grib2 2026-05-07 04:35 662K
20260507T00Z_MSC_GDPS_WindSpeed_IsbL-0030_LatLon0.15_PT132H.grib2 2026-05-07 04:35 667K
20260507T00Z_MSC_GDPS_WindSpeed_IsbL-0050_LatLon0.15_PT132H.grib2 2026-05-07 04:35 891K
20260507T00Z_MSC_GDPS_WindSpeed_IsbL-0100_LatLon0.15_PT132H.grib2 2026-05-07 04:35 1.1M
20260507T00Z_MSC_GDPS_WindSpeed_IsbL-0150_LatLon0.15_PT132H.grib2 2026-05-07 04:35 1.0M
20260507T00Z_MSC_GDPS_WindSpeed_IsbL-0175_LatLon0.15_PT132H.grib2 2026-05-07 04:35 1.0M
20260507T00Z_MSC_GDPS_WindSpeed_IsbL-0200_LatLon0.15_PT132H.grib2 2026-05-07 04:35 1.0M
20260507T00Z_MSC_GDPS_WindSpeed_IsbL-0225_LatLon0.15_PT132H.grib2 2026-05-07 04:35 1.1M
20260507T00Z_MSC_GDPS_WindSpeed_IsbL-0250_LatLon0.15_PT132H.grib2 2026-05-07 04:35 1.1M
20260507T00Z_MSC_GDPS_WindSpeed_IsbL-0275_LatLon0.15_PT132H.grib2 2026-05-07 04:35 1.1M
20260507T00Z_MSC_GDPS_WindSpeed_IsbL-0300_LatLon0.15_PT132H.grib2 2026-05-07 04:35 1.1M
20260507T00Z_MSC_GDPS_WindSpeed_IsbL-0350_LatLon0.15_PT132H.grib2 2026-05-07 04:35 1.1M
20260507T00Z_MSC_GDPS_WindSpeed_IsbL-0400_LatLon0.15_PT132H.grib2 2026-05-07 04:35 1.1M
20260507T00Z_MSC_GDPS_WindSpeed_IsbL-0450_LatLon0.15_PT132H.grib2 2026-05-07 04:35 1.1M
20260507T00Z_MSC_GDPS_WindSpeed_IsbL-0500_LatLon0.15_PT132H.grib2 2026-05-07 04:35 1.1M
20260507T00Z_MSC_GDPS_WindSpeed_IsbL-0550_LatLon0.15_PT132H.grib2 2026-05-07 04:35 1.1M
20260507T00Z_MSC_GDPS_WindSpeed_IsbL-0600_LatLon0.15_PT132H.grib2 2026-05-07 04:35 1.1M
20260507T00Z_MSC_GDPS_WindSpeed_IsbL-0650_LatLon0.15_PT132H.grib2 2026-05-07 04:35 1.2M
20260507T00Z_MSC_GDPS_WindSpeed_IsbL-0700_LatLon0.15_PT132H.grib2 2026-05-07 04:35 1.5M
20260507T00Z_MSC_GDPS_WindSpeed_IsbL-0750_LatLon0.15_PT132H.grib2 2026-05-07 04:35 1.6M
20260507T00Z_MSC_GDPS_WindSpeed_IsbL-0800_LatLon0.15_PT132H.grib2 2026-05-07 04:35 1.7M
20260507T00Z_MSC_GDPS_WindSpeed_IsbL-0850_LatLon0.15_PT132H.grib2 2026-05-07 04:35 1.7M
20260507T00Z_MSC_GDPS_WindSpeed_IsbL-0875_LatLon0.15_PT132H.grib2 2026-05-07 04:35 1.8M
20260507T00Z_MSC_GDPS_WindSpeed_IsbL-0900_LatLon0.15_PT132H.grib2 2026-05-07 04:35 1.8M
20260507T00Z_MSC_GDPS_WindSpeed_IsbL-0925_LatLon0.15_PT132H.grib2 2026-05-07 04:35 1.8M
20260507T00Z_MSC_GDPS_WindSpeed_IsbL-0950_LatLon0.15_PT132H.grib2 2026-05-07 04:35 1.9M
20260507T00Z_MSC_GDPS_WindSpeed_IsbL-0970_LatLon0.15_PT132H.grib2 2026-05-07 04:35 1.9M
20260507T00Z_MSC_GDPS_WindSpeed_IsbL-0985_LatLon0.15_PT132H.grib2 2026-05-07 04:35 1.9M
20260507T00Z_MSC_GDPS_WindSpeed_IsbL-1000_LatLon0.15_PT132H.grib2 2026-05-07 04:35 1.9M
20260507T00Z_MSC_GDPS_WindSpeed_IsbL-1015_LatLon0.15_PT132H.grib2 2026-05-07 04:35 1.8M
20260507T00Z_MSC_GDPS_WindU_AGL-10m_LatLon0.15_PT132H.grib2 2026-05-07 04:35 1.3M
20260507T00Z_MSC_GDPS_WindU_AGL-120m_LatLon0.15_PT132H.grib2 2026-05-07 04:35 1.0M
20260507T00Z_MSC_GDPS_WindU_AGL-40m_LatLon0.15_PT132H.grib2 2026-05-07 04:35 970K
20260507T00Z_MSC_GDPS_WindU_AGL-80m_LatLon0.15_PT132H.grib2 2026-05-07 04:35 1.0M
20260507T00Z_MSC_GDPS_WindU_IsbL-0001_LatLon0.15_PT132H.grib2 2026-05-07 04:35 594K
20260507T00Z_MSC_GDPS_WindU_IsbL-0005_LatLon0.15_PT132H.grib2 2026-05-07 04:35 690K
20260507T00Z_MSC_GDPS_WindU_IsbL-0010_LatLon0.15_PT132H.grib2 2026-05-07 04:35 697K
20260507T00Z_MSC_GDPS_WindU_IsbL-0020_LatLon0.15_PT132H.grib2 2026-05-07 04:35 727K
20260507T00Z_MSC_GDPS_WindU_IsbL-0030_LatLon0.15_PT132H.grib2 2026-05-07 04:35 736K
20260507T00Z_MSC_GDPS_WindU_IsbL-0050_LatLon0.15_PT132H.grib2 2026-05-07 04:35 757K
20260507T00Z_MSC_GDPS_WindU_IsbL-0100_LatLon0.15_PT132H.grib2 2026-05-07 04:35 922K
20260507T00Z_MSC_GDPS_WindU_IsbL-0150_LatLon0.15_PT132H.grib2 2026-05-07 04:35 1.0M
20260507T00Z_MSC_GDPS_WindU_IsbL-0175_LatLon0.15_PT132H.grib2 2026-05-07 04:35 804K
20260507T00Z_MSC_GDPS_WindU_IsbL-0200_LatLon0.15_PT132H.grib2 2026-05-07 04:35 837K
20260507T00Z_MSC_GDPS_WindU_IsbL-0225_LatLon0.15_PT132H.grib2 2026-05-07 04:35 851K
20260507T00Z_MSC_GDPS_WindU_IsbL-0250_LatLon0.15_PT132H.grib2 2026-05-07 04:35 855K
20260507T00Z_MSC_GDPS_WindU_IsbL-0275_LatLon0.15_PT132H.grib2 2026-05-07 04:35 884K
20260507T00Z_MSC_GDPS_WindU_IsbL-0300_LatLon0.15_PT132H.grib2 2026-05-07 04:35 877K
20260507T00Z_MSC_GDPS_WindU_IsbL-0350_LatLon0.15_PT132H.grib2 2026-05-07 04:35 893K
20260507T00Z_MSC_GDPS_WindU_IsbL-0400_LatLon0.15_PT132H.grib2 2026-05-07 04:35 1.1M
20260507T00Z_MSC_GDPS_WindU_IsbL-0450_LatLon0.15_PT132H.grib2 2026-05-07 04:35 1.1M
20260507T00Z_MSC_GDPS_WindU_IsbL-0500_LatLon0.15_PT132H.grib2 2026-05-07 04:35 1.1M
20260507T00Z_MSC_GDPS_WindU_IsbL-0550_LatLon0.15_PT132H.grib2 2026-05-07 04:35 1.1M
20260507T00Z_MSC_GDPS_WindU_IsbL-0600_LatLon0.15_PT132H.grib2 2026-05-07 04:35 1.2M
20260507T00Z_MSC_GDPS_WindU_IsbL-0650_LatLon0.15_PT132H.grib2 2026-05-07 04:35 1.2M
20260507T00Z_MSC_GDPS_WindU_IsbL-0700_LatLon0.15_PT132H.grib2 2026-05-07 04:35 1.2M
20260507T00Z_MSC_GDPS_WindU_IsbL-0750_LatLon0.15_PT132H.grib2 2026-05-07 04:35 1.3M
20260507T00Z_MSC_GDPS_WindU_IsbL-0800_LatLon0.15_PT132H.grib2 2026-05-07 04:35 1.4M
20260507T00Z_MSC_GDPS_WindU_IsbL-0850_LatLon0.15_PT132H.grib2 2026-05-07 04:35 1.4M
20260507T00Z_MSC_GDPS_WindU_IsbL-0875_LatLon0.15_PT132H.grib2 2026-05-07 04:35 1.5M
20260507T00Z_MSC_GDPS_WindU_IsbL-0900_LatLon0.15_PT132H.grib2 2026-05-07 04:35 1.5M
20260507T00Z_MSC_GDPS_WindU_IsbL-0925_LatLon0.15_PT132H.grib2 2026-05-07 04:35 1.5M
20260507T00Z_MSC_GDPS_WindU_IsbL-0950_LatLon0.15_PT132H.grib2 2026-05-07 04:35 1.4M
20260507T00Z_MSC_GDPS_WindU_IsbL-0970_LatLon0.15_PT132H.grib2 2026-05-07 04:35 1.4M
20260507T00Z_MSC_GDPS_WindU_IsbL-0985_LatLon0.15_PT132H.grib2 2026-05-07 04:35 1.4M
20260507T00Z_MSC_GDPS_WindU_IsbL-1000_LatLon0.15_PT132H.grib2 2026-05-07 04:35 1.4M
20260507T00Z_MSC_GDPS_WindU_IsbL-1015_LatLon0.15_PT132H.grib2 2026-05-07 04:35 1.3M
20260507T00Z_MSC_GDPS_WindV_AGL-10m_LatLon0.15_PT132H.grib2 2026-05-07 04:35 1.3M
20260507T00Z_MSC_GDPS_WindV_AGL-120m_LatLon0.15_PT132H.grib2 2026-05-07 04:35 1.0M
20260507T00Z_MSC_GDPS_WindV_AGL-40m_LatLon0.15_PT132H.grib2 2026-05-07 04:35 967K
20260507T00Z_MSC_GDPS_WindV_AGL-80m_LatLon0.15_PT132H.grib2 2026-05-07 04:35 972K
20260507T00Z_MSC_GDPS_WindV_IsbL-0001_LatLon0.15_PT132H.grib2 2026-05-07 04:35 563K
20260507T00Z_MSC_GDPS_WindV_IsbL-0005_LatLon0.15_PT132H.grib2 2026-05-07 04:35 783K
20260507T00Z_MSC_GDPS_WindV_IsbL-0010_LatLon0.15_PT132H.grib2 2026-05-07 04:35 805K
20260507T00Z_MSC_GDPS_WindV_IsbL-0020_LatLon0.15_PT132H.grib2 2026-05-07 04:35 851K
20260507T00Z_MSC_GDPS_WindV_IsbL-0030_LatLon0.15_PT132H.grib2 2026-05-07 04:35 856K
20260507T00Z_MSC_GDPS_WindV_IsbL-0050_LatLon0.15_PT132H.grib2 2026-05-07 04:35 891K
20260507T00Z_MSC_GDPS_WindV_IsbL-0100_LatLon0.15_PT132H.grib2 2026-05-07 04:35 854K
20260507T00Z_MSC_GDPS_WindV_IsbL-0150_LatLon0.15_PT132H.grib2 2026-05-07 04:35 1.0M
20260507T00Z_MSC_GDPS_WindV_IsbL-0175_LatLon0.15_PT132H.grib2 2026-05-07 04:35 1.0M
20260507T00Z_MSC_GDPS_WindV_IsbL-0200_LatLon0.15_PT132H.grib2 2026-05-07 04:35 1.0M
20260507T00Z_MSC_GDPS_WindV_IsbL-0225_LatLon0.15_PT132H.grib2 2026-05-07 04:35 849K
20260507T00Z_MSC_GDPS_WindV_IsbL-0250_LatLon0.15_PT132H.grib2 2026-05-07 04:35 852K
20260507T00Z_MSC_GDPS_WindV_IsbL-0275_LatLon0.15_PT132H.grib2 2026-05-07 04:35 881K
20260507T00Z_MSC_GDPS_WindV_IsbL-0300_LatLon0.15_PT132H.grib2 2026-05-07 04:35 872K
20260507T00Z_MSC_GDPS_WindV_IsbL-0350_LatLon0.15_PT132H.grib2 2026-05-07 04:35 886K
20260507T00Z_MSC_GDPS_WindV_IsbL-0400_LatLon0.15_PT132H.grib2 2026-05-07 04:35 887K
20260507T00Z_MSC_GDPS_WindV_IsbL-0450_LatLon0.15_PT132H.grib2 2026-05-07 04:35 888K
20260507T00Z_MSC_GDPS_WindV_IsbL-0500_LatLon0.15_PT132H.grib2 2026-05-07 04:35 894K
20260507T00Z_MSC_GDPS_WindV_IsbL-0550_LatLon0.15_PT132H.grib2 2026-05-07 04:35 903K
20260507T00Z_MSC_GDPS_WindV_IsbL-0600_LatLon0.15_PT132H.grib2 2026-05-07 04:35 1.1M
20260507T00Z_MSC_GDPS_WindV_IsbL-0650_LatLon0.15_PT132H.grib2 2026-05-07 04:35 1.2M
20260507T00Z_MSC_GDPS_WindV_IsbL-0700_LatLon0.15_PT132H.grib2 2026-05-07 04:35 1.2M
20260507T00Z_MSC_GDPS_WindV_IsbL-0750_LatLon0.15_PT132H.grib2 2026-05-07 04:35 1.3M
20260507T00Z_MSC_GDPS_WindV_IsbL-0800_LatLon0.15_PT132H.grib2 2026-05-07 04:35 1.4M
20260507T00Z_MSC_GDPS_WindV_IsbL-0850_LatLon0.15_PT132H.grib2 2026-05-07 04:35 1.4M
20260507T00Z_MSC_GDPS_WindV_IsbL-0875_LatLon0.15_PT132H.grib2 2026-05-07 04:35 1.4M
20260507T00Z_MSC_GDPS_WindV_IsbL-0900_LatLon0.15_PT132H.grib2 2026-05-07 04:35 1.5M
20260507T00Z_MSC_GDPS_WindV_IsbL-0925_LatLon0.15_PT132H.grib2 2026-05-07 04:35 1.5M
20260507T00Z_MSC_GDPS_WindV_IsbL-0950_LatLon0.15_PT132H.grib2 2026-05-07 04:35 1.4M
20260507T00Z_MSC_GDPS_WindV_IsbL-0970_LatLon0.15_PT132H.grib2 2026-05-07 04:35 1.4M
20260507T00Z_MSC_GDPS_WindV_IsbL-0985_LatLon0.15_PT132H.grib2 2026-05-07 04:35 1.4M
20260507T00Z_MSC_GDPS_WindV_IsbL-1000_LatLon0.15_PT132H.grib2 2026-05-07 04:35 1.4M
20260507T00Z_MSC_GDPS_WindV_IsbL-1015_LatLon0.15_PT132H.grib2 2026-05-07 04:35 1.3M